GFSFLT1_prec_precacc_345.txt.gz
Total_Precipitation_Accumulation
0.00 0.00 0.02 0.03 0.03 0.26 0.74 0.92 1.16 1.32 1.19 1.12 1.00 1.08 1.04 1.00 0.99 1.20 1.60 1.59 1.54 1.76 1.77 1.40 1.69 2.02 1.88 1.77 1.54 1.44 1.36 1.27
0.00 0.01 0.02 0.04 0.10 0.40 0.74 0.90 1.20 1.16 0.66 0.54 0.58 0.60 0.51 0.67 0.71 0.98 1.28 1.58 1.44 1.25 1.12 1.09 1.22 1.29 1.38 1.76 2.27 2.46 2.19 2.11
0.01 0.03 0.06 0.12 0.24 0.52 0.62 0.49 0.35 0.21 0.18 0.29 0.42 0.52 0.55 0.51 0.61 0.81 0.91 1.43 1.44 1.10 1.00 0.94 1.17 1.26 1.16 1.11 1.42 1.75 1.70 2.11
0.02 0.06 0.13 0.17 0.15 0.16 0.14 0.11 0.09 0.13 0.16 0.38 0.61 0.92 0.85 0.71 0.63 0.63 0.78 1.16 1.58 1.56 1.29 1.07 1.12 1.64 1.76 1.58 1.60 1.90 1.77 1.92
0.03 0.02 0.02 0.01 0.03 0.14 0.15 0.15 0.17 0.26 0.30 0.40 0.55 0.54 0.43 0.28 0.31 0.43 0.55 1.13 1.71 1.52 1.77 1.90 1.76 1.56 1.65 2.00 2.21 2.17 2.53 2.30
0.00 0.00 0.01 0.06 0.09 0.16 0.18 0.17 0.21 0.33 0.38 0.43 0.76 0.84 0.87 0.89 1.03 1.18 1.25 1.49 1.95 2.10 2.15 2.76 2.66 2.43 2.04 2.42 3.23 3.73 3.69 4.19
0.01 0.03 0.07 0.09 0.13 0.18 0.15 0.28 0.44 0.74 0.99 1.16 1.33 1.56 1.63 1.61 1.60 1.62 1.76 1.94 2.41 2.81 2.96 2.87 3.40 3.45 3.16 2.98 3.43 4.30 4.72 4.57
0.09 0.10 0.11 0.15 0.15 0.19 0.42 0.90 1.26 1.28 1.28 1.23 1.20 1.32 1.41 1.07 0.91 0.93 1.04 1.46 1.61 1.87 2.12 2.29 2.54 2.87 2.94 3.50 3.97 3.81 3.80 4.33
0.18 0.21 0.22 0.24 0.25 0.41 0.92 0.94 0.83 0.74 0.80 0.88 1.05 1.06 1.19 1.05 0.96 1.32 1.29 1.50 1.65 2.10 2.35 2.72 2.86 3.44 3.93 3.85 3.94 4.39 4.82 4.92
0.34 0.31 0.30 0.34 0.37 0.43 0.43 0.41 0.50 0.55 0.55 0.68 1.00 1.23 1.26 1.55 2.03 2.53 2.59 2.39 2.54 2.79 3.49 4.02 4.68 5.50 5.92 6.42 6.05 5.27 5.68 5.47
0.46 0.58 0.58 0.43 0.42 0.35 0.35 0.41 0.45 0.53 0.57 0.80 1.06 1.52 1.90 2.18 2.33 2.53 2.97 3.40 3.40 3.55 3.86 4.32 4.75 4.59 5.02 5.07 5.10 4.57 4.05 4.12
0.64 0.99 0.99 0.74 0.64 0.55 0.54 0.63 0.70 0.79 1.00 1.17 1.55 2.09 2.17 2.62 2.85 2.83 3.15 3.65 3.71 3.35 2.97 3.32 3.56 3.74 4.10 3.85 3.67 3.95 3.99 3.97
0.61 0.59 0.84 1.24 1.17 0.82 0.69 0.75 1.04 1.57 2.04 2.37 2.39 2.71 2.96 2.82 3.00 2.92 2.67 3.68 3.90 3.67 3.63 3.24 3.68 3.53 3.19 3.00 2.88 2.85 3.12 3.14
1.17 1.07 0.86 0.73 1.09 1.23 0.93 1.07 1.84 2.39 2.52 2.74 2.46 2.75 2.81 3.04 2.88 2.76 2.63 2.50 3.12 3.12 3.19 3.13 2.64 3.05 2.79 2.55 2.54 2.67 2.54 2.83
1.15 1.20 1.36 1.42 1.08 1.23 1.24 1.28 1.87 2.16 1.66 1.66 1.98 2.09 1.95 1.95 1.84 2.02 2.21 2.24 2.10 1.99 2.15 2.31 2.26 1.93 2.04 1.91 1.75 1.61 1.72 1.69
1.00 1.54 1.25 1.25 1.31 1.16 1.13 1.34 1.43 1.70 1.63 1.53 1.58 1.87 1.98 1.52 1.37 1.39 1.76 1.73 1.80 2.00 2.03 2.13 2.41 2.26 2.18 2.24 2.11 1.71 1.60 1.56
0.74 1.03 1.58 0.99 0.81 0.95 0.91 1.06 1.25 1.22 1.34 1.33 1.34 1.27 1.31 1.34 1.33 1.17 1.21 1.43 1.59 1.74 2.00 2.44 2.71 2.86 2.85 2.33 1.93 1.75 1.62 1.42
0.51 0.61 1.35 1.32 1.00 0.91 0.75 0.91 1.07 1.03 1.17 1.27 1.15 1.06 1.04 1.11 1.07 0.98 0.94 1.10 1.27 1.51 1.71 1.74 1.83 2.13 2.67 2.30 1.97 1.46 1.32 1.38
0.62 0.82 1.17 1.27 0.86 0.69 0.62 0.70 0.97 0.97 0.95 1.03 1.09 0.99 0.93 0.98 0.89 0.88 0.85 0.86 0.89 0.83 0.82 0.85 0.87 1.03 1.54 1.61 1.70 1.43 1.47 1.50

GFSFLT1_prec_precacc_348.txt.gz
Total_Precipitation_Accumulation
0.00 0.00 0.02 0.03 0.03 0.26 0.74 0.92 1.16 1.32 1.19 1.12 1.00 1.08 1.04 1.00 0.99 1.20 1.60 1.59 1.54 1.76 1.77 1.40 1.69 2.02 1.88 1.77 1.54 1.44 1.36 1.27
0.00 0.01 0.02 0.04 0.10 0.40 0.74 0.90 1.20 1.16 0.66 0.54 0.58 0.60 0.51 0.67 0.71 0.98 1.28 1.58 1.44 1.25 1.12 1.09 1.22 1.29 1.38 1.76 2.27 2.46 2.19 2.11
0.01 0.03 0.06 0.12 0.24 0.52 0.62 0.49 0.35 0.21 0.18 0.29 0.42 0.52 0.55 0.51 0.61 0.81 0.91 1.43 1.44 1.10 1.00 0.94 1.17 1.26 1.16 1.11 1.42 1.75 1.70 2.11
0.02 0.06 0.13 0.17 0.15 0.16 0.14 0.11 0.09 0.13 0.16 0.38 0.61 0.92 0.85 0.71 0.63 0.63 0.78 1.16 1.58 1.56 1.29 1.07 1.12 1.64 1.76 1.58 1.60 1.90 1.77 1.92
0.03 0.02 0.02 0.01 0.03 0.14 0.15 0.15 0.17 0.26 0.31 0.41 0.55 0.54 0.43 0.28 0.31 0.43 0.55 1.13 1.71 1.52 1.77 1.90 1.76 1.56 1.65 2.00 2.21 2.17 2.53 2.30
0.00 0.00 0.01 0.06 0.09 0.16 0.18 0.17 0.21 0.34 0.38 0.43 0.76 0.84 0.87 0.89 1.03 1.18 1.25 1.49 1.95 2.10 2.15 2.76 2.66 2.43 2.04 2.42 3.23 3.73 3.69 4.19
0.01 0.03 0.07 0.09 0.13 0.18 0.15 0.28 0.45 0.75 0.99 1.16 1.33 1.56 1.63 1.61 1.60 1.62 1.76 1.94 2.41 2.81 2.96 2.87 3.40 3.45 3.16 2.98 3.43 4.30 4.72 4.57
0.09 0.10 0.11 0.15 0.15 0.19 0.42 0.91 1.26 1.28 1.28 1.23 1.20 1.32 1.41 1.07 0.91 0.93 1.04 1.46 1.61 1.87 2.12 2.29 2.54 2.87 2.94 3.50 3.97 3.81 3.80 4.33
0.18 0.21 0.22 0.24 0.25 0.41 0.92 0.94 0.83 0.74 0.80 0.89 1.05 1.06 1.19 1.05 0.96 1.32 1.29 1.50 1.65 2.10 2.35 2.72 2.86 3.44 3.93 3.85 3.94 4.39 4.82 4.92
0.34 0.31 0.30 0.34 0.37 0.43 0.43 0.41 0.50 0.55 0.55 0.68 1.00 1.24 1.26 1.55 2.03 2.53 2.59 2.39 2.54 2.79 3.49 4.02 4.68 5.50 5.92 6.42 6.06 5.27 5.68 5.47
0.46 0.58 0.58 0.43 0.42 0.35 0.35 0.41 0.45 0.53 0.57 0.80 1.06 1.52 1.90 2.18 2.33 2.53 2.97 3.40 3.40 3.55 3.86 4.32 4.75 4.59 5.02 5.07 5.10 4.57 4.05 4.12
0.64 0.99 0.99 0.74 0.64 0.55 0.54 0.63 0.70 0.79 1.00 1.17 1.55 2.09 2.17 2.62 2.85 2.83 3.15 3.65 3.71 3.35 2.97 3.32 3.56 3.74 4.10 3.85 3.67 3.95 3.99 3.97
0.61 0.59 0.84 1.24 1.17 0.83 0.70 0.75 1.04 1.57 2.04 2.37 2.39 2.71 2.96 2.82 3.00 2.92 2.67 3.68 3.90 3.67 3.63 3.24 3.68 3.53 3.19 3.00 2.89 2.85 3.13 3.14
1.17 1.07 0.86 0.73 1.09 1.23 0.93 1.07 1.84 2.39 2.52 2.74 2.46 2.75 2.81 3.04 2.88 2.76 2.63 2.50 3.12 3.12 3.19 3.13 2.64 3.05 2.79 2.55 2.54 2.68 2.54 2.83
1.15 1.20 1.36 1.42 1.08 1.23 1.24 1.28 1.87 2.16 1.66 1.66 1.98 2.09 1.95 1.95 1.84 2.02 2.21 2.24 2.10 1.99 2.15 2.31 2.26 1.93 2.04 1.91 1.76 1.62 1.72 1.69
1.00 1.54 1.25 1.25 1.31 1.16 1.13 1.34 1.43 1.70 1.63 1.53 1.58 1.87 1.98 1.52 1.37 1.39 1.76 1.73 1.80 2.00 2.03 2.13 2.41 2.26 2.18 2.24 2.13 1.71 1.60 1.56
0.74 1.03 1.58 1.00 0.82 0.95 0.91 1.06 1.25 1.22 1.34 1.33 1.34 1.27 1.31 1.34 1.33 1.17 1.21 1.43 1.59 1.74 2.00 2.44 2.71 2.86 2.85 2.34 1.95 1.75 1.62 1.42
0.51 0.61 1.35 1.34 1.01 0.91 0.75 0.91 1.07 1.03 1.17 1.27 1.15 1.06 1.04 1.11 1.07 0.98 0.94 1.10 1.27 1.51 1.71 1.74 1.83 2.13 2.67 2.31 1.98 1.46 1.32 1.39
0.62 0.82 1.18 1.28 0.86 0.69 0.62 0.70 0.97 0.97 0.95 1.03 1.09 0.99 0.93 0.98 0.89 0.88 0.85 0.86 0.89 0.83 0.82 0.85 0.87 1.03 1.54 1.61 1.70 1.44 1.47 1.51

GFSFLT1_prec_precacc_351.txt.gz
Total_Precipitation_Accumulation
0.00 0.00 0.02 0.03 0.03 0.26 0.74 0.92 1.16 1.32 1.19 1.12 1.00 1.08 1.04 1.00 0.99 1.20 1.60 1.59 1.54 1.76 1.77 1.40 1.69 2.02 1.88 1.77 1.54 1.44 1.36 1.27
0.00 0.01 0.02 0.04 0.10 0.40 0.74 0.90 1.20 1.16 0.66 0.54 0.58 0.60 0.51 0.67 0.71 0.98 1.28 1.58 1.44 1.25 1.12 1.09 1.22 1.29 1.38 1.76 2.27 2.46 2.19 2.11
0.01 0.03 0.06 0.12 0.24 0.52 0.62 0.49 0.35 0.21 0.18 0.29 0.43 0.52 0.55 0.51 0.61 0.81 0.91 1.43 1.44 1.10 1.00 0.94 1.17 1.26 1.16 1.11 1.42 1.75 1.70 2.11
0.02 0.06 0.13 0.17 0.15 0.16 0.14 0.11 0.09 0.13 0.16 0.39 0.62 0.92 0.85 0.71 0.63 0.63 0.78 1.16 1.58 1.56 1.29 1.07 1.12 1.64 1.76 1.58 1.60 1.90 1.77 1.92
0.03 0.02 0.02 0.01 0.03 0.14 0.15 0.15 0.17 0.26 0.31 0.41 0.55 0.54 0.43 0.28 0.31 0.43 0.55 1.13 1.71 1.52 1.77 1.90 1.76 1.56 1.65 2.00 2.21 2.17 2.53 2.30
0.00 0.00 0.01 0.06 0.09 0.16 0.18 0.17 0.21 0.34 0.38 0.43 0.76 0.84 0.87 0.89 1.03 1.18 1.25 1.49 1.95 2.10 2.15 2.76 2.66 2.43 2.04 2.42 3.23 3.73 3.69 4.19
0.01 0.03 0.07 0.09 0.13 0.18 0.15 0.28 0.45 0.75 0.99 1.16 1.33 1.56 1.63 1.61 1.60 1.62 1.76 1.94 2.41 2.81 2.96 2.87 3.40 3.45 3.16 2.98 3.43 4.30 4.72 4.57
0.09 0.10 0.11 0.15 0.15 0.19 0.42 0.91 1.26 1.28 1.28 1.23 1.20 1.32 1.41 1.07 0.91 0.93 1.04 1.46 1.61 1.87 2.12 2.29 2.54 2.87 2.94 3.50 3.97 3.81 3.80 4.33
0.18 0.21 0.22 0.24 0.25 0.41 0.92 0.94 0.83 0.74 0.80 0.89 1.05 1.06 1.19 1.05 0.96 1.32 1.29 1.50 1.65 2.10 2.35 2.72 2.86 3.44 3.93 3.85 3.94 4.39 4.82 4.92
0.34 0.31 0.30 0.34 0.37 0.43 0.43 0.41 0.50 0.55 0.55 0.68 1.00 1.24 1.26 1.55 2.03 2.53 2.59 2.39 2.54 2.79 3.49 4.02 4.68 5.50 5.92 6.42 6.06 5.27 5.68 5.47
0.46 0.58 0.58 0.43 0.42 0.35 0.35 0.41 0.45 0.53 0.57 0.80 1.06 1.52 1.90 2.18 2.33 2.53 2.97 3.40 3.40 3.55 3.86 4.32 4.75 4.59 5.02 5.07 5.10 4.57 4.05 4.13
0.64 0.99 0.99 0.74 0.64 0.55 0.54 0.63 0.70 0.79 1.00 1.17 1.55 2.09 2.17 2.62 2.85 2.83 3.15 3.65 3.71 3.35 2.97 3.32 3.56 3.74 4.10 3.85 3.67 3.95 4.00 3.98
0.61 0.59 0.84 1.24 1.17 0.83 0.70 0.75 1.04 1.57 2.04 2.37 2.39 2.71 2.96 2.82 3.00 2.92 2.67 3.68 3.90 3.67 3.63 3.24 3.68 3.53 3.19 3.00 2.89 2.86 3.14 3.15
1.17 1.07 0.86 0.73 1.09 1.23 0.93 1.07 1.84 2.39 2.52 2.74 2.46 2.75 2.81 3.04 2.88 2.76 2.63 2.50 3.12 3.12 3.19 3.13 2.64 3.05 2.79 2.55 2.55 2.69 2.55 2.83
1.15 1.20 1.36 1.42 1.08 1.24 1.24 1.28 1.87 2.16 1.66 1.66 1.98 2.09 1.95 1.95 1.84 2.02 2.21 2.24 2.10 1.99 2.15 2.31 2.26 1.93 2.04 1.91 1.76 1.62 1.73 1.69
1.00 1.54 1.25 1.25 1.32 1.16 1.13 1.34 1.43 1.70 1.63 1.53 1.58 1.87 1.98 1.52 1.37 1.39 1.76 1.73 1.80 2.00 2.03 2.13 2.41 2.26 2.18 2.24 2.13 1.72 1.60 1.56
0.74 1.03 1.58 1.00 0.83 0.95 0.91 1.06 1.25 1.22 1.34 1.33 1.34 1.27 1.31 1.34 1.33 1.17 1.21 1.43 1.59 1.74 2.00 2.44 2.71 2.86 2.85 2.34 1.95 1.76 1.62 1.42
0.51 0.61 1.35 1.34 1.01 0.91 0.75 0.91 1.07 1.03 1.17 1.27 1.15 1.06 1.04 1.11 1.07 0.98 0.94 1.10 1.27 1.51 1.71 1.74 1.83 2.13 2.67 2.31 1.98 1.46 1.32 1.39
0.62 0.82 1.18 1.29 0.86 0.69 0.62 0.70 0.97 0.97 0.95 1.03 1.09 0.99 0.93 0.98 0.89 0.88 0.85 0.86 0.89 0.83 0.82 0.85 0.87 1.03 1.54 1.61 1.70 1.44 1.47 1.51

GFSFLT1_prec_precacc_354.txt.gz
Total_Precipitation_Accumulation
0.00 0.00 0.02 0.03 0.03 0.26 0.74 0.92 1.16 1.32 1.19 1.12 1.00 1.08 1.05 1.00 0.99 1.20 1.60 1.59 1.54 1.76 1.77 1.40 1.69 2.02 1.88 1.77 1.54 1.44 1.36 1.27
0.00 0.01 0.02 0.04 0.10 0.40 0.74 0.90 1.20 1.16 0.66 0.54 0.59 0.62 0.52 0.67 0.71 0.98 1.28 1.58 1.44 1.25 1.12 1.09 1.22 1.29 1.38 1.76 2.27 2.46 2.19 2.11
0.01 0.03 0.06 0.12 0.24 0.52 0.62 0.49 0.35 0.21 0.18 0.30 0.44 0.52 0.55 0.51 0.61 0.81 0.91 1.43 1.44 1.10 1.00 0.94 1.17 1.26 1.16 1.11 1.42 1.75 1.70 2.11
0.02 0.06 0.13 0.17 0.15 0.16 0.14 0.11 0.09 0.13 0.16 0.39 0.62 0.92 0.85 0.71 0.63 0.63 0.78 1.16 1.58 1.56 1.29 1.07 1.12 1.64 1.76 1.58 1.60 1.90 1.77 1.92
0.03 0.02 0.02 0.01 0.03 0.14 0.15 0.15 0.17 0.26 0.31 0.41 0.55 0.54 0.43 0.28 0.31 0.43 0.55 1.13 1.71 1.52 1.77 1.90 1.76 1.56 1.65 2.00 2.21 2.17 2.53 2.30
0.00 0.00 0.01 0.06 0.09 0.16 0.18 0.17 0.21 0.34 0.38 0.43 0.76 0.84 0.87 0.89 1.03 1.18 1.25 1.49 1.95 2.10 2.15 2.76 2.66 2.43 2.04 2.42 3.23 3.73 3.69 4.20
0.01 0.03 0.07 0.09 0.13 0.18 0.15 0.28 0.45 0.75 0.99 1.16 1.33 1.56 1.63 1.61 1.60 1.62 1.76 1.94 2.41 2.81 2.96 2.87 3.40 3.45 3.16 2.98 3.43 4.30 4.73 4.57
0.09 0.10 0.11 0.15 0.15 0.19 0.42 0.91 1.26 1.28 1.28 1.23 1.20 1.32 1.41 1.07 0.91 0.93 1.04 1.46 1.61 1.87 2.12 2.29 2.54 2.87 2.94 3.50 3.97 3.81 3.80 4.33
0.18 0.21 0.22 0.24 0.25 0.41 0.92 0.94 0.83 0.74 0.80 0.89 1.05 1.06 1.19 1.05 0.96 1.32 1.29 1.50 1.65 2.10 2.35 2.72 2.86 3.44 3.93 3.85 3.94 4.40 4.82 4.93
0.34 0.31 0.30 0.34 0.37 0.43 0.43 0.41 0.50 0.55 0.55 0.68 1.00 1.24 1.26 1.55 2.03 2.53 2.59 2.39 2.54 2.79 3.49 4.02 4.68 5.50 5.92 6.42 6.06 5.28 5.68 5.48
0.46 0.58 0.58 0.43 0.42 0.35 0.35 0.41 0.45 0.53 0.57 0.80 1.06 1.52 1.90 2.18 2.33 2.53 2.97 3.40 3.40 3.55 3.86 4.32 4.75 4.59 5.02 5.07 5.10 4.57 4.05 4.14
0.64 0.99 0.99 0.74 0.64 0.55 0.54 0.63 0.70 0.79 1.00 1.17 1.55 2.09 2.17 2.62 2.85 2.83 3.15 3.65 3.71 3.35 2.97 3.32 3.56 3.74 4.10 3.85 3.67 3.95 4.00 3.99
0.61 0.59 0.84 1.24 1.17 0.83 0.70 0.75 1.04 1.57 2.04 2.37 2.39 2.71 2.96 2.82 3.00 2.92 2.67 3.68 3.90 3.67 3.63 3.24 3.68 3.53 3.19 3.00 2.89 2.86 3.14 3.16
1.17 1.07 0.86 0.73 1.09 1.23 0.93 1.07 1.84 2.39 2.52 2.74 2.46 2.75 2.81 3.04 2.88 2.76 2.63 2.50 3.12 3.12 3.19 3.13 2.64 3.05 2.79 2.55 2.55 2.69 2.55 2.84
1.15 1.20 1.36 1.42 1.08 1.24 1.24 1.28 1.87 2.16 1.66 1.66 1.98 2.09 1.95 1.95 1.84 2.02 2.21 2.24 2.10 1.99 2.15 2.31 2.26 1.93 2.04 1.91 1.76 1.62 1.73 1.69
1.00 1.54 1.25 1.25 1.32 1.16 1.13 1.34 1.43 1.70 1.63 1.53 1.58 1.87 1.98 1.52 1.37 1.39 1.76 1.73 1.80 2.00 2.03 2.13 2.41 2.26 2.18 2.24 2.13 1.72 1.60 1.56
0.74 1.03 1.58 1.00 0.83 0.95 0.91 1.06 1.25 1.22 1.34 1.33 1.34 1.27 1.31 1.34 1.33 1.17 1.21 1.43 1.59 1.74 2.00 2.44 2.71 2.86 2.85 2.34 1.95 1.76 1.62 1.43
0.51 0.61 1.35 1.34 1.01 0.91 0.75 0.91 1.07 1.03 1.17 1.27 1.15 1.06 1.04 1.11 1.07 0.98 0.94 1.10 1.27 1.51 1.71 1.74 1.83 2.13 2.67 2.31 1.98 1.46 1.32 1.41
0.62 0.82 1.18 1.29 0.86 0.69 0.62 0.70 0.97 0.97 0.95 1.03 1.09 0.99 0.93 0.98 0.89 0.88 0.85 0.86 0.89 0.83 0.82 0.85 0.87 1.03 1.54 1.61 1.70 1.44 1.47 1.51